This demonstration page uses our WeatherBlox Daily Observations layout. Learn more.

Left ArrowRight Arrow

38.20091, -84.87328

Hourly Observations for September 28, 2022

Temp ( °F °C ) Dew Point ( °F °C ) Humidity (%) Winds ( mph kmh ) Pressure ( in mb ) Visibility ( mi km ) Precip ( " mm )
12:53 am 00:53 Clear 43 6.1 39 3.9 86 86 Calm 30.23 1024 10 16 0.00 0.00
1:53 am 01:53 Clear 43 6.1 39 3.9 86 86 NNW 3 6 30.24 1024 10 16 0.00 0.00
2:53 am 02:53 Clear 41 5 38 3.3 89 89 Calm 30.25 1024 10 16 0.00 0.00
3:53 am 03:53 Clear 40 4.4 37 2.8 89 89 NNW 3 6 30.25 1024 10 16 0.00 0.00
4:53 am 04:53 Clear 39 3.9 36 2.2 89 89 Calm 30.25 1024 10 16 0.00 0.00
5:53 am 05:53 Clear 39 3.9 37 2.8 93 93 Calm 30.27 1025 10 16 0.00 0.00
6:53 am 06:53 Clear 39 3.9 36 2.2 89 89 Calm 30.29 1026 10 16 0.00 0.00
7:53 am 07:53 Sunny 38 3.3 35 1.7 89 89 Calm 30.30 1026 10 16 0.00 0.00
8:53 am 08:53 Mostly Sunny 45 7.2 40 4.4 82 82 NNW 6 9 30.32 1027 10 16 0.00 0.00
9:07 am 09:07 Mostly Cloudy 47 8.3 42 5.6 83 83 NNW 6 9 30.33 1027 10 16 0.00 0.00
9:53 am 09:53 Cloudy 51 10.6 44 6.7 77 77 Calm 30.34 1027 10 16 0.00 0.00
10:38 am 10:38 Partly Cloudy 55 12.8 46 7.8 72 72 NNE 8 13 30.35 1028 10 16 0.00 0.00
10:53 am 10:53 Mostly Sunny 56 13.3 45 7.2 66 66 NNE 7 11 30.35 1028 10 16 0.00 0.00
11:39 am 11:39 Mostly Cloudy 59 15 46 7.8 62 62 NE 8 13 30.36 1028 10 16 0.00 0.00
11:53 am 11:53 Mostly Cloudy 59 15 45 7.2 60 60 NE 7 11 30.37 1028 10 16 0.00 0.00
12:35 pm 12:35 Cloudy 58 14.4 45 7.2 62 62 VRB 7 11 30.37 1028 10 16 0.00 0.00
12:44 pm 12:44 Cloudy 58 14.4 45 7.2 62 62 VRB 6 9 30.37 1028 10 16 0.00 0.00
12:53 pm 12:53 Cloudy 58 14.4 45 7.2 62 62 NW 9 15 30.37 1029 10 16 0.00 0.00
1:53 pm 13:53 Cloudy 60 15.6 43 6.1 53 53 N 9 15 30.37 1029 10 16 0.00 0.00
2:53 pm 14:53 Cloudy 62 16.7 45 7.2 53 53 VRB 3 6 30.36 1028 10 16 0.00 0.00
3:53 pm 15:53 Cloudy 61 16.1 44 6.7 54 54 VRB 3 6 30.36 1028 10 16 0.00 0.00
4:53 pm 16:53 Cloudy 63 17.2 44 6.7 50 50 N 12 19 30.36 1028 10 16 0.00 0.00
5:53 pm 17:53 Cloudy 61 16.1 44 6.7 54 54 N 13 20 30.37 1028 10 16 0.00 0.00
6:53 pm 18:53 Mostly Cloudy 60 15.6 42 5.6 51 51 NNE 6 9 30.37 1029 10 16 0.00 0.00
7:53 pm 19:53 Clear 56 13.3 43 6.1 62 62 N 3 6 30.38 1029 10 16 0.00 0.00
8:53 pm 20:53 Clear 53 11.7 44 6.7 71 71 N 5 7 30.39 1029 10 16 0.00 0.00
9:53 pm 21:53 Clear 52 11.1 44 6.7 74 74 N 3 6 30.40 1030 10 16 0.00 0.00
10:53 pm 22:53 Clear 52 11.1 44 6.7 74 74 N 5 7 30.41 1030 10 16 0.00 0.00
11:53 pm 23:53 Clear 51 10.6 44 6.7 77 77 NNE 5 7 30.42 1030 10 16 0.00 0.00

Powered by AerisWeather